Powrót do katalogu

CZ-6A DEB

AktywnyPO
NORAD 60713·DEBRIS·🇨🇳 China

Wystrzelony Aug 6, 2024 z Taiyuan Satellite Launch Center

Loading…

Następne Przeloty (najbliższe 24 godziny)

TLE

ŚwieżeSource: Space-Track

Epoka: Sep 14, 2026, 17:32 UTC

1 60713U 24140DS  26257.73061369  .00000111  00000-0  46009-4 0  9991
2 60713  89.0074 265.8043 0046142 235.9802 123.7002 14.19038700108299

Śledź CZ-6A DEB w czasie rzeczywistym z AllMySat

Download on the App Store